CAPE
0 0 0 45 34 25 33 44 23 37 27 12 18 16 35 50 59 42 68 58 45 16 6 12 24 18 17 6 6 1 13 13 2 3 2 1 13 20 25 35 36 135 320
0 0 11 44 18 17 2 17 5 6 12 20 17 22 11 18 62 40 59 49 40 28 25 21 41 33 36 26 10 5 7 6 3 0 0 0 0 4 12 6 4 5 5
0 0 25 33 7 9 10 14 17 7 49 31 24 20 22 40 49 53 34 47 39 11 28 60 32 26 34 9 2 9 4 5 1 0 0 0 0 1 2 2 7 6 4
0 0 1 36 2 5 11 8 4 23 9 8 19 20 8 24 31 38 36 35 24 17 25 44 30 27 41 22 12 5 9 2 0 0 0 0 0 4 3 1 1 2 2
0 0 0 27 16 30 17 11 4 13 8 5 3 11 16 6 11 21 4 12 12 3 9 23 23 21 19 21 12 5 12 8 0 0 0 0 0 5 7 8 4 1 2
0 0 1 28 9 23 28 19 15 4 8 12 9 1 4 6 3 8 7 4 2 4 8 5 6 5 1 17 1 4 2 0 0 0 1 5 2 4 13 9 5 12 6
0 0 20 5 12 14 3 11 20 15 0 4 2 14 4 4 7 6 6 5 4 5 6 8 5 6 2 2 6 3 0 0 0 0 0 1 1 5 8 9 9 6 6
0 0 2 10 2 6 11 8 5 8 5 2 6 2 4 5 3 0 0 0 0 2 0 0 0 0 0 0 0 0 0 0 0 0 0 0 6 9 8 7 5 4 3
0 0 0 2 7 13 6 5 5 2 2 10 6 5 1 0 0 0 0 0 0 0 0 0 0 0 0 0 0 0 0 0 0 0 0 0 4 8 3 3 3 3 3
0 0 0 0 3 3 4 3 10 3 4 5 2 5 0 0 0 0 0 0 0 0 0 0 0 0 0 0 0 0 0 0 0 0 0 0 2 2 4 3 3 3 3
0 0 0 0 1 0 2 1 1 9 5 7 4 4 0 0 0 0 0 0 0 0 0 0 0 0 0 0 0 0 0 0 0 0 0 0 0 0 1 1 1 2 2
0 0 0 0 0 0 0 0 0 0 1 0 0 0 0 0 0 0 0 0 0 0 0 0 0 0 0 0 0 0 0 0 0 0 0 0 0 0 0 0 0 0 0
0 0 0 0 0 0 0 0 0 0 0 0 0 0 0 0 0 0 0 0 0 0 0 0 0 0 0 0 0 0 0 0 0 0 0 0 0 0 0 0 0 0 0
0 0 0 0 0 0 0 0 0 0 0 0 0 0 0 0 0 0 0 0 0 0 0 0 0 0 0 0 0 0 0 0 0 0 0 0 0 0 0 0 0 0 0
0 0 0 0 0 0 0 0 0 0 0 0 0 0 0 0 0 0 0 0 0 0 0 0 0 0 0 0 0 0 0 0 0 0 0 0 0 0 0 0 0 0 0
0 0 0 0 0 0 0 0 0 0 0 0 0 0 0 0 0 0 0 0 0 0 0 0 0 0 0 0 0 0 0 0 0 0 0 0 0 0 0 0 0 0 0
0 0 0 0 0 0 0 0 0 0 0 0 0 0 0 0 0 0 0 0 0 0 0 0 0 0 0 0 0 0 0 0 0 0 0 0 0 0 0 0 0 0 0
0 0 0 0 0 0 0 0 0 0 0 0 0 0 0 0 0 0 0 0 0 0 0 0 0 0 0 0 0 0 0 0 0 0 0 0 0 0 0 0 0 0 0
0 0 0 0 0 0 0 0 0 0 0 0 0 0 0 0 0 0 0 0 0 0 0 0 0 0 0 0 0 0 0 0 0 0 0 0 0 0 0 0 0 0 0
0 0 0 0 0 0 0 0 0 0 0 0 0 0 0 0 0 0 0 0 0 0 0 0 0 0 0 0 0 0 0 0 0 0 0 0 0 0 0 0 0 0 0
0 0 0 0 0 0 0 0 0 0 0 0 0 0 0 0 0 0 0 0 0 0 0 0 0 0 0 0 0 0 0 0 0 0 0 0 0 0 0 0 0 0 0
0 0 0 0 0 0 0 0 0 0 0 0 0 0 0 0 0 0 0 0 0 0 0 0 0 0 0 0 0 0 0 0 0 0 0 0 0 0 0 0 0 0 0
0 0 0 0 0 0 0 0 0 0 0 0 0 0 0 0 0 0 0 0 0 0 0 0 0 0 0 0 0 0 0 0 0 0 0 0 0 0 0 0 0 0 0
0 0 0 0 0 0 0 0 0 0 0 0 0 0 0 0 0 0 0 0 0 0 0 0 0 0 0 0 0 0 0 0 0 0 0 0 0 0 0 0 0 0 0
0 0 0 0 0 0 0 0 0 0 0 0 0 0 0 0 0 0 0 0 0 0 0 0 0 0 0 0 0 0 0 0 0 0 0 0 0 0 0 0 0 0 0
0 0 0 0 0 0 0 0 0 0 0 0 0 0 0 0 0 0 0 0 0 0 0 0 0 0 0 0 0 0 0 0 0 0 0 0 0 0 0 0 0 0 0
CIN
0 0 0 -1 -1 -4 -1 -2 -2 -3 -2 -1 -4 -2 -1 -2 -1 -2 -1 0 -1 -7 0 -7 -2 -3 -2 -1 -1 -3 0 -1 -3 -1 -1 -3 0 0 -25 -115 -119 -42 -1
0 0 -1 0 -1 -1 -1 -5 -1 -2 -1 -3 -2 -1 -1 -2 0 -1 0 -1 -1 -5 -9 -8 -1 -1 -2 0 0 0 0 -1 0 -2 0 0 -1 -1 0 0 0 -8 -20
0 0 -2 -2 -1 -1 -1 -1 -3 -1 -1 -3 -2 -1 -1 -1 -3 -3 -2 -1 -1 -1 -5 0 -2 -7 -5 -1 0 0 -1 -1 0 0 0 0 0 0 -1 -4 -1 0 0
0 0 -2 -2 -1 -1 -2 -1 -3 -6 -2 -3 -4 -2 -1 -3 -2 -2 -3 -3 -3 -3 -5 -3 -4 -5 -4 -2 -1 -1 0 0 0 0 0 0 0 0 0 0 -1 0 0
0 0 0 -1 -4 -1 -4 -1 -1 -1 -2 -1 -2 -3 -1 -1 -1 -1 -1 -3 -2 -1 -1 -3 -4 -5 -5 -4 -2 -2 -1 -3 0 0 0 0 0 -1 -1 0 -1 0 -1
0 0 -15 -2 -1 -3 -5 -3 -1 -1 -1 -2 -1 -1 -1 -1 -2 0 0 -3 -3 -1 0 -1 -1 -3 -1 -4 0 -1 0 -1 0 0 -7 -1 -1 -1 -1 0 0 0 -1
0 0 -5 -1 -1 -1 -3 -1 -2 -2 -1 -1 -1 -3 -2 -1 0 0 -1 -1 -1 0 0 0 0 0 0 -1 -1 0 0 0 0 0 0 -3 -2 -1 -1 -1 0 0 -1
0 0 -3 -1 -1 -1 -1 -1 -1 -1 0 -2 -3 -1 -1 0 -1 0 0 0 0 -1 0 0 0 0 0 0 0 0 0 0 0 0 -2 -1 -1 0 -1 0 0 0 0
0 0 0 -2 -1 0 -1 -2 -1 -3 -1 0 0 0 -1 0 0 0 0 0 0 0 0 0 0 0 0 0 0 0 0 0 0 0 0 0 -1 -1 0 0 -1 0 -1
0 0 0 -1 -1 -1 -3 -1 0 -2 -1 -1 0 0 0 0 0 0 0 0 0 0 0 0 0 0 0 0 0 0 0 0 0 0 0 0 0 0 -1 -1 -1 0 0
0 0 0 0 -3 -3 -4 -5 -1 -1 -1 -1 -1 0 0 0 0 0 0 0 0 0 0 0 0 0 0 0 0 0 0 0 0 0 0 0 0 0 0 0 -1 0 0
0 0 0 0 0 0 0 -1 -1 -1 -7 0 0 0 0 0 0 0 0 0 0 0 0 0 0 0 0 0 0 0 0 0 0 0 0 0 0 0 0 0 0 0 0
0 0 0 0 0 0 0 0 -1 0 0 0 0 0 0 0 0 0 0 0 0 0 0 0 0 0 0 0 0 0 0 0 0 0 0 0 0 0 0 0 0 0 0
0 0 0 0 0 0 0 0 0 0 0 0 0 0 0 0 0 0 0 0 0 0 0 0 0 0 0 0 0 0 0 0 0 0 0 0 0 0 0 0 0 0 0
0 0 0 0 0 0 0 0 0 0 0 0 0 0 0 0 0 0 0 0 0 0 0 0 0 0 0 0 0 0 0 0 0 0 0 0 0 0 0 0 0 0 0
0 0 0 0 0 0 0 0 0 0 0 0 0 0 0 0 0 0 0 0 0 0 0 0 0 0 0 0 0 0 0 0 0 0 0 0 0 0 0 0 0 0 0
0 0 0 0 0 0 0 0 0 0 0 0 0 0 0 0 0 0 0 0 0 0 0 0 0 0 0 0 0 0 0 0 0 0 0 0 0 0 0 0 0 0 0
0 0 0 0 0 0 0 0 0 0 0 0 0 0 0 0 0 0 0 0 0 0 0 0 0 0 0 0 0 0 0 0 0 0 0 0 0 0 0 0 0 0 0
0 0 0 0 0 0 0 0 0 0 0 0 0 0 0 0 0 0 0 0 0 0 0 0 0 0 0 0 0 0 0 0 0 0 0 0 0 0 0 0 0 0 0
0 0 0 0 0 0 0 0 0 0 0 0 0 0 0 0 0 0 0 0 0 0 0 0 0 0 0 0 0 0 0 0 0 0 0 0 0 0 0 0 0 0 0
0 0 0 0 0 0 0 0 0 0 0 0 0 0 0 0 0 0 0 0 0 0 0 0 0 0 0 0 0 0 0 0 0 0 0 0 0 0 0 0 0 0 0
0 0 0 0 0 0 0 0 0 0 0 0 0 0 0 0 0 0 0 0 0 0 0 0 0 0 0 0 0 0 0 0 0 0 0 0 0 0 0 0 0 0 0
0 0 0 0 0 0 0 0 0 0 0 0 0 0 0 0 0 0 0 0 0 0 0 0 0 0 0 0 0 0 0 0 0 0 0 0 0 0 0 0 0 0 0
0 0 0 0 0 0 0 0 0 0 0 0 0 0 0 0 0 0 0 0 0 0 0 0 0 0 0 0 0 0 0 0 0 0 0 0 0 0 0 0 0 0 0
0 0 0 0 0 0 0 0 0 0 0 0 0 0 0 0 0 0 0 0 0 0 0 0 0 0 0 0 0 0 0 0 0 0 0 0 0 0 0 0 0 0 0
0 0 0 0 0 0 0 0 0 0 0 0 0 0 0 0 0 0 0 0 0 0 0 0 0 0 0 0 0 0 0 0 0 0 0 0 0 0 0 0 0 0 0
Wind_Speed
11 15 16 16 15 15 15 15 18 20 20 20 20 20 19 18 16 17 15 13 12 9 10 11 12 13 14 14 14 13 11 12 11 11 6 1 2 3 5 5 6 6 6
13 16 15 14 14 13 13 14 15 16 18 20 20 20 19 18 18 18 16 15 12 11 9 9 11 13 13 13 13 13 11 11 4 2 3 6 7 8 6 7 7 6 5
14 15 14 14 13 13 13 13 14 16 17 18 19 19 19 17 16 16 17 17 16 15 13 12 11 12 9 10 10 10 6 3 4 6 8 10 10 10 11 9 9 10 11
13 13 12 12 12 13 13 13 13 15 15 16 17 18 18 16 16 15 15 16 17 15 13 14 13 11 7 10 7 2 2 6 7 6 9 9 10 11 13 13 12 12 13
13 12 12 13 12 12 13 13 14 14 15 15 16 15 15 14 15 13 14 14 15 16 14 13 10 9 6 3 1 2 5 6 8 10 9 7 7 10 11 12 13 14 15
11 12 13 12 11 11 12 13 13 14 15 15 14 13 13 12 11 12 12 13 13 13 13 9 8 3 2 1 1 3 6 5 7 8 8 5 8 9 9 8 11 14 14
11 11 10 11 11 11 11 12 13 13 14 14 13 11 10 10 10 10 11 10 10 9 8 5 4 4 3 3 5 6 6 6 7 6 7 6 6 7 7 7 8 10 11
10 9 7 10 10 11 12 12 12 13 14 13 11 10 9 9 9 9 9 9 8 7 6 6 7 6 6 6 6 6 6 7 8 6 5 5 6 6 7 7 7 7 10
8 6 5 7 8 10 10 11 12 13 12 11 10 9 9 9 9 9 9 8 8 8 8 8 8 9 9 9 8 8 8 8 9 8 7 6 5 6 8 7 6 8 11
5 4 4 5 7 8 9 10 10 11 11 10 9 9 9 10 10 10 10 10 11 11 11 10 10 10 10 11 10 10 10 11 10 9 9 9 7 8 8 7 8 11 13
2 3 3 3 5 7 7 9 10 11 10 9 9 10 11 11 12 12 12 13 13 14 13 12 12 12 12 12 11 11 12 12 13 11 11 11 9 10 9 8 11 13 15
5 4 2 2 3 5 6 7 9 8 8 8 10 11 12 13 14 15 16 16 16 16 15 14 13 13 13 13 14 14 14 13 14 14 12 13 12 11 10 11 13 16 17
4 2 5 6 6 6 6 7 9 7 7 8 9 12 14 16 17 17 17 17 17 17 16 15 15 15 15 15 15 15 15 15 15 15 16 15 15 15 14 15 17 18 18
5 11 8 12 11 10 6 6 6 6 6 6 8 13 17 20 20 20 20 19 19 18 18 17 17 17 16 16 17 17 17 16 17 17 18 17 17 17 18 19 20 19 19
8 8 10 9 12 11 10 5 5 6 6 5 8 14 19 22 22 22 21 20 20 19 19 19 18 18 17 17 17 17 17 18 18 18 18 18 19 18 19 20 20 20 19
3 6 6 7 11 7 8 7 7 5 4 4 8 18 23 24 24 23 22 22 22 21 20 19 19 18 18 18 19 18 18 19 19 19 19 18 20 19 20 21 21 20 18
1 5 3 6 4 7 9 8 6 7 3 3 5 21 25 26 26 25 24 24 23 21 21 20 20 19 20 19 20 20 19 19 20 20 19 18 18 18 19 22 21 19 18
4 3 3 3 4 4 5 6 6 5 4 4 6 22 26 27 27 27 26 25 24 23 22 21 21 21 21 20 21 21 20 20 20 18 18 18 18 17 16 17 19 18 16
4 4 4 3 4 4 3 2 3 2 2 4 10 22 27 28 28 28 28 27 25 23 22 22 21 21 22 22 22 22 22 22 20 18 17 16 16 15 13 12 6 16 14
6 4 7 6 8 8 11 14 17 17 13 10 5 23 26 28 27 28 28 28 26 24 23 22 22 22 23 23 24 25 25 24 22 20 19 17 16 14 11 10 10 7 12
9 9 7 7 8 8 12 12 15 7 5 4 7 2 18 25 27 28 29 29 27 26 25 22 22 23 24 22 24 24 24 24 22 20 18 17 16 15 12 10 9 6 6
5 7 7 7 8 9 11 14 16 15 17 12 5 9 20 27 29 30 31 30 28 26 24 23 22 23 23 22 22 22 23 21 21 20 18 17 17 16 14 11 8 5 4
22 11 5 6 11 12 14 14 16 17 21 18 15 24 26 25 27 30 32 32 30 26 26 25 24 23 26 23 22 21 21 21 21 19 20 21 21 18 17 12 6 4 3
22 18 15 11 13 15 14 14 14 12 12 15 16 22 25 23 26 28 31 32 31 28 27 26 24 24 24 28 24 24 23 21 20 20 19 22 24 23 19 14 8 5 4
20 17 16 15 16 19 19 21 21 23 26 25 21 23 24 23 25 28 28 30 31 27 28 28 25 24 24 26 25 24 23 24 24 24 26 21 22 25 20 15 10 9 8
20 17 15 14 17 20 22 23 24 27 30 31 29 29 29 26 24 25 28 28 28 27 28 29 28 26 26 27 27 26 26 24 23 24 28 30 30 27 24 19 15 12 10
Wind_Direction
64 97 93 78 65 56 49 43 53 51 53 50 42 41 37 26 14 31 22 13 7 341 342 351 360 4 6 12 19 9 8 19 19 26 20 126 135 104 131 106 120 104 80
80 100 93 74 62 60 58 41 43 55 53 55 47 45 38 33 28 35 22 23 13 10 346 344 356 5 7 19 22 25 19 22 351 213 192 182 172 167 160 155 152 150 142
86 96 86 76 61 58 62 55 44 57 58 45 50 46 42 36 26 25 28 29 30 37 32 21 17 13 348 13 14 19 10 232 201 189 182 177 176 174 171 169 165 159 157
90 91 80 70 58 57 65 71 56 54 40 49 48 43 46 35 30 25 28 30 37 35 35 35 33 23 352 25 17 335 249 201 191 184 177 175 175 175 170 167 166 163 157
89 84 80 86 63 55 66 55 65 49 52 47 51 41 36 31 34 22 28 26 34 40 35 36 27 19 1 7 353 196 186 183 184 179 179 175 171 169 169 168 165 158 154
88 87 88 81 69 65 56 59 54 59 62 54 36 33 32 20 9 20 22 26 25 28 34 18 15 341 268 280 263 201 185 177 175 174 170 167 170 168 166 162 158 155 154
93 87 70 74 74 65 60 65 58 57 58 51 40 21 9 7 4 2 7 7 8 1 1 330 265 262 264 241 217 199 195 190 184 182 185 187 184 180 177 169 163 161 158
101 86 54 72 73 73 69 67 66 63 60 54 27 360 340 331 335 344 351 342 341 327 300 261 246 251 238 230 221 214 212 208 204 204 207 208 202 196 187 180 175 173 164
100 84 14 56 69 73 71 70 66 70 60 47 17 357 333 314 309 313 321 314 289 266 261 257 248 239 236 230 228 224 219 217 212 219 221 221 223 210 197 195 194 182 169
101 89 20 31 63 71 70 74 64 68 53 29 2 339 319 305 301 294 292 268 256 249 248 246 246 244 238 236 233 233 227 219 224 227 226 221 232 216 212 216 203 181 168
102 103 347 15 19 65 53 73 77 77 58 30 342 321 307 300 286 276 265 255 248 244 246 247 247 247 248 244 242 241 233 227 221 229 239 233 239 227 228 227 204 183 166
130 125 75 47 46 57 54 67 72 31 19 2 326 308 301 287 272 261 252 247 246 242 246 252 253 260 256 250 242 236 232 235 232 233 246 239 236 237 236 228 202 179 167
132 136 124 118 109 89 79 85 92 56 38 6 339 309 288 275 262 254 250 249 248 248 248 255 255 259 257 254 245 238 239 241 239 239 234 236 234 227 225 215 192 175 164
142 146 140 142 137 132 104 93 84 73 59 21 349 307 276 258 252 248 248 247 248 251 253 255 256 259 259 254 249 243 247 246 240 237 234 232 231 225 218 201 182 171 161
143 147 150 145 147 141 136 106 102 104 99 73 341 297 270 253 248 250 248 249 249 255 256 257 260 263 264 262 259 255 255 248 244 239 242 237 231 232 220 201 183 174 164
146 145 145 154 154 145 141 136 134 119 99 49 331 284 260 250 248 250 248 249 250 257 258 262 264 269 268 267 264 263 260 256 252 248 248 249 238 240 228 206 185 174 161
226 291 165 156 165 160 156 149 139 140 108 75 344 274 258 250 248 249 248 250 251 260 263 265 268 270 268 269 265 265 265 263 259 255 256 258 256 256 246 213 186 169 156
269 226 265 267 267 182 170 158 150 141 140 137 327 275 259 253 251 249 248 251 254 261 267 267 270 269 269 271 268 268 268 270 271 275 271 267 265 271 277 269 164 160 148
209 265 265 245 255 194 195 236 169 164 151 151 313 281 259 255 255 251 248 251 260 267 270 273 275 277 272 273 271 269 267 269 275 278 279 279 277 284 298 308 44 150 140
196 248 273 270 276 275 285 286 286 287 296 306 312 279 268 261 261 255 250 251 258 269 274 278 279 280 277 275 271 267 266 268 273 275 273 279 281 288 304 320 330 61 128
191 190 254 260 270 271 281 287 289 294 300 183 178 196 295 274 266 260 253 254 263 267 273 281 283 280 279 282 278 275 273 272 274 277 278 278 281 285 296 309 327 11 78
260 213 200 245 262 265 274 283 290 296 296 302 301 305 290 272 264 260 252 256 264 272 279 282 284 281 282 285 283 283 278 281 277 276 277 275 278 284 289 302 320 349 53
285 286 236 246 272 272 274 281 288 293 290 298 302 285 279 280 274 268 260 261 265 277 280 281 281 281 276 283 282 281 279 276 282 281 273 272 273 281 286 293 304 319 346
299 291 286 283 279 276 274 277 281 289 297 300 301 295 287 288 281 277 269 266 269 278 279 280 282 281 280 275 281 277 276 280 281 280 283 276 272 275 282 287 283 287 299
324 308 296 290 286 279 276 276 279 281 280 286 296 295 295 294 286 279 279 276 275 281 279 278 280 281 280 277 277 278 277 276 276 276 275 282 282 277 282 285 279 273 283
346 337 319 305 295 286 280 278 278 279 278 279 285 288 289 294 294 290 284 283 283 284 281 277 278 279 278 276 274 272 272 273 276 274 272 275 276 281 285 285 279 275 268